アフリカーノ彗星

C/2018 W2 ( Africano )

English version
Home page
Updated on September 17, 2019

---------------------------------------------------------------------

・ プロフィール

発見日 2018年11月27日
発見光度 18.3等、18.2等
発見者 B. M. Africano (Mount Lemmon), H. Groeller (Catalina Sky Survey)

・ 写真集

・ 軌道要素

Epoch 2019 Aug. 25.0 TT = JDT 2458720.5
T 2019 Sept. 5.72857 TT                                 Williams
q   1.4546871            (2000.0)            P               Q
z  -0.0005341      Peri.  157.97215     +0.92109487     +0.38826723
 +/-0.0000008      Node   181.84976     +0.04815525     -0.04006004
e   1.0007770      Incl.  116.61573     +0.38634869     -0.92067570
From 699 observations 2018 Nov. 27-2019 Aug. 24, mean residual 0".5.

・ 星図

・ 光度変化

        m1 = 8.0 + 5 logΔ + 12.5 log r

---------------------------------------------------------------------

軌道要素はM.P.E.C. 2019-Q135に掲載されたものです。
星図はステラナビゲータ Ver.10 (アストロアーツ) で作成したものです。
光度グラフはComet for Windowsで作成したものです。

---------------------------------------------------------------------

Copyright(C) Seiichi Yoshida (comet@aerith.net). All rights reserved.